Flag for U.S.A. Weather past 2 weeks in Concord, California, U.S.A.

Now
64 °F

Overcast.


Feels Like: 64 °F
Forecast: 61 / 77 °F
Wind: 12 mph from West

Location: Buchanan Field

Current Time: Sep 21, 2014 at 1:32:04 AM

Latest Report: Sep 21, 2014 at 12:53 AM


Visibility: 10 mi

Pressure: 29.89 "Hg

Humidity: 78%

Dew point: 57 °F

Location of ConcordLocation

Historic Weather in Concord — Graph

°F

Concord temperature yesterday

Maximum temperature yesterday: 80 °F (at 1:53 PM)
Minimum temperature yesterday: 61 °F (at 4:53 AM)
Average temperature yesterday: 69 °F

Past Weeks' High & Low Weather Summary

 TemperatureHumidityPressure
High97 °F (Sep 11, 4:53 PM)93% (Sep 10, 1:53 AM)29.96 "Hg (Sep 10, 1:53 AM)
Low54 °F (Sep 10, 6:53 AM)11% (Sep 10, 4:53 PM)29.69 "Hg (Sep 17, 4:53 PM)
Average70 °F61%29.81 "Hg
* Reported Sep 5 11:53 PM — Sep 20 11:53 PM, Concord, Weather by CustomWeather, © 2014

Note: Actual official high and low records may vary slightly from our data, if they occured in-between our weather recording intervals... More about our weather records

Advertising

Concord weather history for previous 24 hours

 ConditionsComfort  
Time TempWeatherWind HumidityBarometerVisibility
11:53 PM
Sep 20
64 °FClear.8 mph78%29.90 "Hg10 mi
10:53 PM64 °FClear.16 mph78%29.89 "Hg10 mi
9:53 PM65 °FClear.15 mph76%29.87 "Hg10 mi
8:53 PM65 °FClear.9 mph76%29.86 "Hg10 mi
7:53 PM67 °FSunny.6 mph71%29.88 "Hg10 mi
6:53 PM70 °FSunny.13 mph64%29.84 "Hg10 mi
5:53 PM75 °FSunny.8 mph50%29.82 "Hg10 mi
4:53 PM78 °FSunny.8 mph48%29.82 "Hg10 mi
3:53 PM80 °FSunny.9 mph47%29.83 "Hg10 mi
2:53 PM80 °FSunny.13 mph47%29.84 "Hg10 mi
1:53 PM80 °FSunny.17 mph41%29.85 "Hg10 mi
12:53 PM78 °FSunny.12 mph52%29.86 "Hg10 mi
11:53 AM73 °FSunny.13 mph62%29.88 "Hg10 mi
10:53 AM72 °FSunny.9 mph64%29.89 "Hg10 mi
5:53 AM61 °FClear.No wind87%29.84 "Hg10 mi
4:53 AM61 °FClear.No wind87%29.83 "Hg10 mi
3:53 AM62 °FClear.No wind86%29.83 "Hg10 mi
2:53 AM64 °FClear.9 mph84%29.83 "Hg10 mi
1:53 AM64 °FClear.12 mph84%29.84 "Hg10 mi
Weather by CustomWeather, © 2014

See weather overviewHow to use our weather pages